GW2087 Weather Reports


time (UTC)temp
C
wind
direction
speed
KPH
gust
KPH
rain 1hr
cm
rain 24hr
cm
rain mn
cm
humidity
%
barometer
mb
20260503173539 13 214 19.3 22.5 0.00 0.00 0.00 39 1015.9
20260503173035 13 209 14.5 20.9 0.00 0.00 0.00 42 1015.9
20260503172533 13 206 6.4 8.0 0.00 0.00 0.00 43 1015.7
20260503172030 13 237 4.8 4.8 0.00 0.00 0.00 39 1015.7
20260503171526 12 198 11.3 14.5 0.00 0.00 0.00 40 1015.8
20260503171024 13 304 4.8 8.0 0.00 0.00 0.00 38 1015.8
20260503170520 13 203 12.9 14.5 0.00 0.00 0.00 39 1015.8
20260503150912 10 208 6.4 8.0 0.00 0.00 0.00 47 1016.5
20260503150409 11 321 3.2 3.2 0.00 0.00 0.00 43 1016.4
20260503131302 6 264 1.6 3.2 0.00 0.00 0.00 67 1017.1
20260503130800 6 227 4.8 8.0 0.00 0.00 0.00 66 1017.2
20260503130257 6 210 3.2 3.2 0.00 0.00 0.00 66 1017.1
20260503110650 -2 288 0.0 0.0 0.00 0.00 0.00 99 1016.6
20260503110148 -2 287 0.0 0.0 0.00 0.00 0.00 99 1016.6
20260503100114 -3 287 0.0 0.0 0.00 0.00 0.00 99 1016.1
20260503081504 -2 288 0.0 0.0 0.00 0.00 0.00 98 1016.0
20260503081001 -2 288 0.0 0.0 0.00 0.00 0.00 98 1015.9
20260503080457 -2 288 0.0 0.0 0.00 0.00 0.00 98 1016.1
20260503072933 -1 288 0.0 0.0 0.00 0.00 0.00 98 1015.7
20260503072431 -1 288 0.0 0.0 0.00 0.00 0.00 98 1016.1
20260503071928 -1 288 0.0 0.0 0.00 0.00 0.00 97 1015.8
20260503071425 -1 288 0.0 0.0 0.00 0.00 0.00 97 1015.8
20260503070921 -1 288 1.6 1.6 0.00 0.00 0.00 97 1015.8
20260503070418 -1 288 0.0 0.0 0.00 0.00 0.00 97 1015.7
20260503054832 1 289 0.0 0.0 0.00 0.00 0.00 90 1015.8
20260503054327 1 289 0.0 0.0 0.00 0.00 0.00 91 1015.8
20260503053826 1 289 0.0 0.0 0.00 0.00 0.00 91 1016.0
20260503053324 1 289 0.0 0.0 0.00 0.00 0.00 91 1016.2
20260503052820 1 289 0.0 0.0 0.00 0.00 0.00 88 1016.1
20260503052317 1 289 0.0 0.0 0.00 0.00 0.00 92 1015.9
20260503051813 1 289 0.0 0.0 0.00 0.00 0.00 93 1016.1
20260503051309 1 289 0.0 0.0 0.00 0.00 0.00 94 1016.1
20260503050806 1 289 0.0 0.0 0.00 0.00 0.00 94 1016.2
20260503050302 1 289 0.0 0.0 0.00 0.00 0.00 94 1016.3
20260503045800 1 289 0.0 0.0 0.00 0.00 0.00 94 1016.5
20260503045258 1 289 0.0 0.0 0.00 0.00 0.00 94 1016.3
20260503044754 1 289 0.0 0.0 0.00 0.00 0.00 94 1016.2
20260503044251 1 289 0.0 0.0 0.00 0.00 0.00 94 1016.4
20260503043748 1 289 0.0 0.0 0.00 0.00 0.00 93 1016.2
20260503043245 1 289 0.0 0.0 0.00 0.00 0.00 93 1016.0
20260503042741 1 289 0.0 0.0 0.00 0.00 0.00 93 1016.2
20260503042238 1 289 0.0 0.0 0.00 0.00 0.00 93 1016.3
20260503041734 1 289 0.0 0.0 0.00 0.00 0.00 93 1016.2
20260503041232 1 289 0.0 0.0 0.00 0.00 0.00 93 1016.6
20260503040729 1 289 0.0 0.0 0.00 0.00 0.00 93 1016.2
20260503040221 1 289 0.0 0.0 0.00 0.00 0.00 93 1016.3
20260503035717 1 289 0.0 0.0 0.00 0.00 0.00 92 1016.3
20260503035215 1 289 0.0 0.0 0.00 0.00 0.00 92 1016.6
20260503034712 1 289 0.0 0.0 0.00 0.00 0.00 92 1016.2
20260503034209 1 289 0.0 1.6 0.00 0.00 0.00 93 1016.3
20260503033706 1 289 0.0 1.6 0.00 0.00 0.00 92 1016.0
20260503033204 1 289 0.0 0.0 0.00 0.00 0.00 92 1016.3
20260503032702 1 289 0.0 1.6 0.00 0.00 0.00 92 1016.5
20260503032200 1 289 1.6 1.6 0.00 0.00 0.00 90 1016.4
20260503031657 1 289 0.0 0.0 0.00 0.00 0.00 89 1016.4
20260503031155 1 289 0.0 1.6 0.00 0.00 0.00 89 1016.3
20260503030651 1 289 0.0 0.0 0.00 0.00 0.00 89 1016.7
20260503030148 1 289 0.0 0.0 0.00 0.00 0.00 89 1016.3
20260503025644 1 289 0.0 0.0 0.00 0.00 0.00 88 1016.5
20260503025143 2 289 0.0 0.0 0.00 0.00 0.00 88 1016.6
20260503024638 2 289 0.0 1.6 0.00 0.00 0.00 89 1016.5
20260503024136 2 289 0.0 0.0 0.00 0.00 0.00 85 1016.6
20260503023633 2 289 0.0 0.0 0.00 0.00 0.00 83 1016.7
20260503023130 2 289 1.6 1.6 0.00 0.00 0.00 83 1016.8
20260503022626 2 290 0.0 0.0 0.00 0.00 0.00 84 1016.9
20260503022120 2 291 0.0 0.0 0.00 0.00 0.00 85 1016.6
20260503021618 2 289 0.0 0.0 0.00 0.00 0.00 84 1016.5
20260503021114 2 289 0.0 0.0 0.00 0.00 0.00 84 1016.6
20260503020611 2 289 0.0 0.0 0.00 0.00 0.00 83 1016.7
20260503020109 2 289 0.0 0.0 0.00 0.00 0.00 84 1016.5
20260503015605 2 289 0.0 0.0 0.00 0.00 0.00 85 1016.6
20260503015102 3 289 0.0 0.0 0.00 0.00 0.00 84 1016.5
20260503014558 3 289 0.0 0.0 0.00 0.00 0.00 78 1016.5
20260503014056 3 289 0.0 0.0 0.00 0.00 0.00 77 1016.6
20260503013553 3 291 0.0 0.0 0.00 0.00 0.00 77 1016.4
20260503013051 3 289 0.0 0.0 0.00 0.00 0.00 79 1016.5
20260503012548 3 289 0.0 0.0 0.00 0.00 0.00 75 1016.5
20260503012044 3 289 0.0 0.0 0.00 0.00 0.00 74 1016.5
20260503011541 3 289 0.0 0.0 0.00 0.00 0.00 74 1016.4
20260503011038 3 289 0.0 0.0 0.00 0.00 0.00 72 1016.4
20260503010534 3 289 0.0 0.0 0.00 0.00 0.00 71 1016.3
20260503010032 3 292 1.6 1.6 0.00 0.00 0.00 70 1016.4
20260503005529 3 288 1.6 1.6 0.00 0.00 0.00 70 1016.4
20260503005026 4 324 3.2 3.2 0.00 0.00 0.00 69 1016.3
20260503004522 3 317 4.8 4.8 0.00 0.00 0.00 69 1016.2
20260503004021 4 292 1.6 1.6 0.00 0.00 0.00 69 1016.1
20260503003517 4 285 1.6 3.2 0.00 0.00 0.00 69 1016.2
20260503003014 4 325 4.8 4.8 0.00 0.00 0.00 68 1016.1
20260503002511 4 286 1.6 3.2 0.00 0.00 0.00 69 1016.1
20260503002008 4 315 4.8 4.8 0.00 0.00 0.00 67 1015.9
20260503001504 4 285 3.2 4.8 0.00 0.00 0.00 69 1015.9
20260503001002 4 332 4.8 4.8 0.00 0.00 0.00 68 1016.1
20260503000459 4 299 4.8 4.8 0.00 0.00 0.00 66 1016.2
20260502235956 4 301 4.8 4.8 0.00 0.00 0.00 67 1016.0
20260502235453 4 329 4.8 4.8 0.00 0.00 0.00 67 1016.1
20260502234950 5 285 3.2 3.2 0.00 0.00 0.00 67 1015.9
20260502234446 5 336 6.4 9.7 0.00 0.00 0.00 66 1016.0
20260502233944 5 292 1.6 1.6 0.00 0.00 0.00 67 1015.9
20260502233439 5 305 3.2 3.2 0.00 0.00 0.00 67 1015.8
20260502232936 5 298 4.8 4.8 0.00 0.00 0.00 66 1015.9
20260502232432 5 322 3.2 3.2 0.00 0.00 0.00 67 1016.1
20260502231930 5 313 4.8 8.0 0.00 0.00 0.00 66 1016.0
20260502231427 5 271 4.8 4.8 0.00 0.00 0.00 65 1015.8
20260502230925 5 338 4.8 4.8 0.00 0.00 0.00 65 1015.9
20260502230423 5 292 4.8 4.8 0.00 0.00 0.00 65 1016.0
20260502225921 5 319 6.4 8.0 0.00 0.00 0.00 64 1015.9
20260502225416 5 335 11.3 12.9 0.00 0.00 0.00 63 1015.9
20260502224913 5 64 4.8 8.0 0.00 0.00 0.00 64 1015.8
20260502224409 5 248 3.2 3.2 0.00 0.00 0.00 65 1015.7
20260502223906 5 315 4.8 4.8 0.00 0.00 0.00 63 1015.4
20260502223404 5 292 4.8 4.8 0.00 0.00 0.00 66 1016.0
20260502222902 5 346 8.0 9.7 0.00 0.00 0.00 66 1015.7
20260502222359 5 326 6.4 9.7 0.00 0.00 0.00 64 1015.6
20260502221854 5 11 4.8 8.0 0.00 0.00 0.00 67 1015.4
20260502221351 5 315 4.8 8.0 0.00 0.00 0.00 68 1015.3
20260502220849 5 262 1.6 3.2 0.00 0.00 0.00 70 1015.6
20260502220344 5 336 6.4 8.0 0.00 0.00 0.00 70 1015.4
20260502215841 6 300 4.8 4.8 0.00 0.00 0.00 71 1015.7
20260502215339 5 267 1.6 1.6 0.00 0.00 0.00 71 1015.8
20260502214835 5 290 4.8 8.0 0.00 0.00 0.00 71 1015.8
20260502214332 6 233 3.2 3.2 0.00 0.00 0.00 71 1015.8
20260502213829 6 328 1.6 3.2 0.00 0.00 0.00 68 1015.3
20260502213326 6 233 6.4 9.7 0.00 0.00 0.00 67 1015.4
20260502212825 6 5 3.2 4.8 0.00 0.00 0.00 66 1015.6
20260502212323 6 277 1.6 3.2 0.00 0.00 0.00 67 1015.2
20260502211820 6 279 1.6 1.6 0.00 0.00 0.00 67 1015.4
20260502211315 6 286 1.6 3.2 0.00 0.00 0.00 69 1015.3
20260502210813 5 290 4.8 4.8 0.00 0.00 0.00 70 1015.4
20260502210310 5 338 9.7 11.3 0.00 0.00 0.00 69 1015.6
20260502205807 5 323 8.0 9.7 0.00 0.00 0.00 71 1015.3
20260502205258 6 284 6.4 8.0 0.00 0.00 0.00 68 1015.4
20260502204755 6 282 4.8 4.8 0.00 0.00 0.00 71 1015.2
20260502204252 6 276 4.8 4.8 0.00 0.00 0.00 71 1015.6
20260502203750 5 293 3.2 4.8 0.00 0.00 0.00 72 1015.4
20260502203248 6 288 8.0 11.3 0.00 0.00 0.00 70 1015.3
20260502202742 6 301 11.3 12.9 0.00 0.00 0.00 67 1015.1
20260502202240 6 323 17.7 22.5 0.00 0.00 0.00 65 1015.2
20260502201738 6 11 9.7 11.3 0.00 0.00 0.00 64 1015.3
20260502201234 6 337 12.9 16.1 0.00 0.00 0.00 63 1015.4
20260502200730 6 330 9.7 11.3 0.00 0.00 0.00 62 1015.3
20260502200226 6 308 6.4 8.0 0.00 0.00 0.00 66 1015.2
20260502195725 6 313 4.8 8.0 0.00 0.00 0.00 69 1015.4
20260502195221 6 343 6.4 8.0 0.00 0.00 0.00 70 1015.7
20260502194717 6 318 9.7 11.3 0.00 0.00 0.00 72 1015.6
20260502194215 6 343 8.0 9.7 0.00 0.00 0.00 72 1015.6
20260502193710 5 337 6.4 9.7 0.00 0.00 0.00 72 1015.4
20260502193209 5 329 12.9 14.5 0.00 0.00 0.00 72 1015.7
20260502192703 6 11 1.6 8.0 0.00 0.00 0.00 73 1015.6
20260502192201 5 73 6.4 9.7 0.00 0.00 0.00 72 1015.8
20260502191657 5 352 4.8 4.8 0.00 0.00 0.00 73 1015.6
20260502191155 5 350 11.3 11.3 0.00 0.00 0.00 73 1015.9
20260502190652 6 294 6.4 8.0 0.00 0.00 0.00 72 1015.7
20260502190150 6 263 3.2 3.2 0.00 0.00 0.00 70 1015.9
20260502185644 5 343 6.4 8.0 0.00 0.00 0.00 75 1016.0
20260502185141 5 306 8.0 11.3 0.00 0.00 0.00 75 1016.1
20260502184637 5 303 3.2 3.2 0.00 0.00 0.00 75 1016.2
20260502184133 5 277 3.2 3.2 0.00 0.00 0.00 76 1016.1
20260502183630 5 289 11.3 14.5 0.00 0.00 0.00 76 1016.1
20260502183126 5 331 8.0 9.7 0.00 0.00 0.00 76 1016.1
20260502182621 5 310 4.8 8.0 0.00 0.00 0.00 77 1016.0
20260502182117 5 17 4.8 4.8 0.00 0.00 0.00 78 1016.4
20260502181615 5 329 9.7 11.3 0.00 0.00 0.00 79 1016.0
20260502181114 5 11 8.0 11.3 0.00 0.00 0.00 80 1016.1
20260502180610 5 2 14.5 16.1 0.00 0.00 0.00 77 1016.0
20260502180108 6 300 3.2 4.8 0.00 0.00 0.00 74 1016.0